Change the Weather History Date:

Saturday, April 13, 2013

  Actual Average Record
Temperature  
Mean Temperature 50 °F -  
Max Temperature 65 °F - 87 °F (1977)
Min Temperature 35 °F - 27 °F (1973)
Degree Days  
Heating Degree Days 15    
Month to date heating degree days  
Since 1 July heating degree days  
Cooling Degree Days 0    
Month to date cooling degree days  
Moisture  
Dew Point 37 °F    
Average Humidity 65    
Maximum Humidity 92    
Minimum Humidity 37    
Precipitation  
Precipitation 0.00 in - 1.69 in (1966)
Month to date precipitation  
Sea Level Pressure  
Sea Level Pressure 30.05 in    
Wind  
Wind Speed 4 mph (NE)    
Max Wind Speed 8 mph    
Max Gust Speed -    
Visibility 10 miles    
Events      
T = Trace of Precipitation, MM = Missing Value Source: NWS Daily Summary

Daily Weather History Graph

Daily Weather History Graph

Search for Another Location

Airport or City:

Trip Planner

Search our weather history database for the weather conditions in past years. The results will help you decide how hot, cold, wet, or windy it might be!

Date:

Astronomy

Apr. 13, 2013 Rise Set
Actual Time 6:18 AM CDT 7:22 PM CDT
Civil Twilight 5:51 AM CDT 7:49 PM CDT
Nautical Twilight 5:20 AM CDT 8:20 PM CDT
Astronomical Twilight 4:47 AM CDT 8:53 PM CDT
Moon 8:13 AM CDT (4/13) 10:41 PM CDT (4/13)
Length of Visible Light 13h 57m
Length of Day
13h 04m
Waxing Crescent, 10% of the Moon is Illuminated
Apr 13
Waxing Crescent
Apr 18
First Quarter
Apr 25
Full
May 2
Last Quarter
May 9
New

Hourly Weather History & Observations

Time (CDT) Temp. Windchill Dew Point Humidity Pressure Visibility Wind Dir Wind Speed Gust Speed Precip Events Conditions
12:52 AM 43.0 °F 38.2 °F 36.0 °F 76% 30.04 in 10.0 mi NNW 8.1 mph - N/A   Clear
1:52 AM 41.0 °F 39.0 °F 34.0 °F 76% 30.05 in 10.0 mi NNW 3.5 mph - N/A   Clear
2:52 AM 39.9 °F 35.8 °F 34.0 °F 79% 30.06 in 10.0 mi NNW 5.8 mph - N/A   Clear
3:52 AM 39.0 °F 34.8 °F 33.1 °F 79% 30.06 in 10.0 mi NNW 5.8 mph - N/A   Clear
4:52 AM 39.0 °F - 33.1 °F 79% 30.06 in 10.0 mi Calm Calm - N/A   Clear
5:52 AM 36.0 °F - 33.1 °F 89% 30.07 in 10.0 mi Calm Calm - N/A   Clear
6:52 AM 37.0 °F - 35.1 °F 93% 30.09 in 8.0 mi Calm Calm - N/A   Clear
7:52 AM 42.1 °F 40.2 °F 36.0 °F 79% 30.11 in 10.0 mi South 3.5 mph - N/A   Clear
8:52 AM 46.9 °F - 34.0 °F 61% 30.11 in 10.0 mi Variable 3.5 mph - N/A   Clear
9:52 AM 51.1 °F - 34.0 °F 52% 30.11 in 10.0 mi Calm Calm - N/A   Clear
10:52 AM 55.0 °F - 35.1 °F 47% 30.12 in 10.0 mi NW 8.1 mph - N/A   Clear
11:52 AM 57.0 °F - 36.0 °F 45% 30.11 in 10.0 mi Calm Calm - N/A   Clear
12:52 PM 59.0 °F - 36.0 °F 42% 30.08 in 10.0 mi NNW 6.9 mph - N/A   Clear
1:52 PM 62.1 °F - 37.9 °F 41% 30.06 in 10.0 mi NE 4.6 mph - N/A   Clear
2:52 PM 64.0 °F - 39.0 °F 40% 30.05 in 10.0 mi North 6.9 mph - N/A   Clear
3:52 PM 64.0 °F - 37.9 °F 38% 30.02 in 10.0 mi ENE 4.6 mph - N/A   Clear
4:52 PM 64.9 °F - 41.0 °F 42% 30.01 in 10.0 mi East 4.6 mph - N/A   Clear
5:52 PM 64.0 °F - 39.9 °F 41% 30.01 in 10.0 mi ENE 5.8 mph - N/A   Clear
6:52 PM 61.0 °F - 41.0 °F 48% 30.00 in 10.0 mi NE 6.9 mph - N/A   Clear
7:52 PM 57.9 °F - 39.9 °F 51% 29.99 in 10.0 mi East 4.6 mph - N/A   Clear
8:52 PM 55.0 °F - 39.9 °F 57% 30.00 in 10.0 mi East 5.8 mph - N/A   Clear
9:52 PM 54.0 °F - 39.9 °F 59% 30.00 in 10.0 mi East 6.9 mph - N/A   Clear
10:52 PM 52.0 °F - 41.0 °F 66% 30.00 in 10.0 mi ESE 5.8 mph - N/A   Clear
11:52 PM 52.0 °F - 39.0 °F 61% 29.99 in 10.0 mi ESE 3.5 mph - N/A   Clear